Hourly Data Report for August 13, 2003

TORONTO CITY
ONTARIO

43°40'00.000" N
79°24'00.000" W
112.50 m
6158355
71508
XTO

Download Data

Hourly Data (August 2003)
Hourly Data Report for August 13, 2003
TIME
LST
Temp Definition
°C
Dew Point Definition
°C
Rel Hum Definition
%
Precip. Amount Definition
mm

Wind Dir Definition
10's deg

Wind Spd Definition
km/h
Visibility Definition
km
Stn Press Definition
kPa
Hmdx Definition


Wind Chill Definition


Weather Definition


00:00 23.0 20.8 87   LegendMM LegendMM LegendMM 100.94 31   LegendNANA
01:00 22.2 20.5 90   LegendMM LegendMM LegendMM 100.97 30   LegendNANA
02:00 22.2 21.0 93   LegendMM LegendMM LegendMM 100.94 31   LegendNANA
03:00 22.1 20.8 92   LegendMM LegendMM LegendMM 100.96 30   LegendNANA
04:00 21.6 20.4 93   LegendMM LegendMM LegendMM 100.99 30   LegendNANA
05:00 21.5 20.5 94   LegendMM LegendMM LegendMM 101.03 29   LegendNANA
06:00 21.2 20.3 95   LegendMM LegendMM LegendMM 101.09 29   LegendNANA
07:00 22.8 21.1 90   LegendMM LegendMM LegendMM 101.16 31   LegendNANA
08:00 24.6 21.8 84   LegendMM LegendMM LegendMM 101.20 34   LegendNANA
09:00 26.6 21.3 73   LegendMM LegendMM LegendMM 101.23 35   LegendNANA
10:00 27.3 20.8 68   LegendMM LegendMM LegendMM 101.25 36   LegendNANA
11:00 27.1 21.3 71   LegendMM LegendMM LegendMM 101.27 36   LegendNANA
12:00 28.0 21.1 66   LegendMM LegendMM LegendMM 101.26 37   LegendNANA
13:00 28.4 21.2 65   LegendMM LegendMM LegendMM 101.24 37   LegendNANA
14:00 29.6 21.1 60   LegendMM LegendMM LegendMM 101.22 38   LegendNANA
15:00 29.7 20.6 58   LegendMM LegendMM LegendMM 101.19 38   LegendNANA
16:00 29.4 20.4 58   LegendMM LegendMM LegendMM 101.14 37   LegendNANA
17:00 28.2 19.3 59   LegendMM LegendMM LegendMM 101.14 35   LegendNANA
18:00 27.4 19.4 62   LegendMM LegendMM LegendMM 101.14 34   LegendNANA
19:00 26.1 19.4 67   LegendMM LegendMM LegendMM 101.17 33   LegendNANA
20:00 24.8 19.6 73   LegendMM LegendMM LegendMM 101.19 32   LegendNANA
21:00 25.0 19.7 72   LegendMM LegendMM LegendMM 101.22 32   LegendNANA
22:00 23.9 19.7 77   LegendMM LegendMM LegendMM 101.26 31   LegendNANA
23:00 25.1 19.4 71   LegendMM LegendMM LegendMM 101.29 32   LegendNANA

Notes on Data Quality.

Legend

  • E = Estimated
  • M = Missing
  • NA = Not Available*
  • [empty] = Indicates an unobserved value
Date modified: